Date String (YYYY-MM-DD hh:mm:ss) UTC,Instrument flags,Ambient pressure (hPa),Sample flow (lpm),Bypass flow (lpm),Sample temperature (°C),Ambient temperature (°C),ASC tube jacket temperature (°C),LED temperature (°C),Box temperature (°C),Sample RH (%),Span deviation,Mass concentration (μg/m³),Mass concentration (μg/m³),Mass concentration (μg/m³)
DateTimeUTC,F1_M11,P_M11,Q1_M11,Q2_M11,T1_M11,T2_M11,T3_M11,T4_M11,T5_M11,U1_M11,ZSPAN_M11,X0_M11,X2_M11,X1_M11
2021-10-15 20:00:00,,0831.7,5.01,0.00,27.1,26.4,00.0,36.0,29.0,08.1,0000.0,0003.91,0002.46,0002.17
2021-10-15 20:01:00,,0831.7,5.00,0.00,27.1,26.4,00.0,36.0,29.0,07.9,0000.0,0004.77,0002.45,0002.16
2021-10-15 20:02:00,,0831.7,5.00,0.00,27.1,26.4,00.0,36.1,29.0,08.0,0000.0,0004.81,0002.46,0002.15
2021-10-15 20:03:00,,0831.7,5.00,0.00,27.1,26.4,00.0,36.1,29.0,07.9,0000.0,0004.73,0002.46,0002.14
2021-10-15 20:04:00,,0831.7,5.00,0.00,27.1,26.5,00.0,36.1,29.0,07.9,0000.0,0004.75,0002.47,0002.16
2021-10-15 20:05:00,,0831.7,5.01,0.00,27.2,26.5,00.0,36.1,29.1,07.8,0000.0,0005.92,0002.48,0002.16
2021-10-15 20:06:00,,0831.7,5.01,0.00,27.2,26.5,00.0,36.1,29.1,07.8,0000.0,0005.79,0002.46,0002.16
2021-10-15 20:07:00,,0831.7,5.01,0.00,27.2,26.5,00.0,36.2,29.1,07.9,0000.0,0005.72,0002.45,0002.14
2021-10-15 20:08:00,,0831.8,4.99,0.00,27.2,26.5,00.0,36.2,29.1,07.9,0000.0,0005.74,0002.45,0002.14
2021-10-15 20:09:00,,0831.7,5.01,0.00,27.2,26.5,00.0,36.2,29.2,07.7,0000.0,0005.79,0002.46,0002.14
2021-10-15 20:10:00,,0831.7,4.99,0.00,27.2,26.5,00.0,36.2,29.2,07.7,0000.0,0005.74,0002.44,0002.14
2021-10-15 20:11:00,,0831.7,5.00,0.00,27.2,26.5,00.0,36.2,29.1,07.7,0000.0,0006.03,0002.44,0002.15
2021-10-15 20:12:00,,0831.7,5.00,0.00,27.2,26.5,00.0,36.2,29.1,07.8,0000.0,0004.99,0002.44,0002.16
2021-10-15 20:13:00,,0831.7,4.99,0.00,27.2,26.5,00.0,36.2,29.1,07.7,0000.0,0004.89,0002.42,0002.17
2021-10-15 20:14:00,,0831.7,5.00,0.00,27.3,26.5,00.0,36.2,29.1,07.9,0000.0,0004.88,0002.42,0002.16
2021-10-15 20:15:00,,0831.7,4.99,0.00,27.3,26.5,00.0,36.2,29.1,08.0,0000.0,0004.97,0002.43,0002.14
2021-10-15 20:16:00,,0831.7,5.00,0.00,27.3,26.5,00.0,36.2,29.1,08.1,0000.0,0004.19,0002.46,0002.13
2021-10-15 20:17:00,,0831.8,5.00,0.00,27.3,26.5,00.0,36.3,29.1,07.9,0000.0,0004.33,0002.50,0002.14
2021-10-15 20:18:00,,0831.7,4.99,0.00,27.3,26.5,00.0,36.3,29.1,07.8,0000.0,0004.35,0002.52,0002.16
2021-10-15 20:19:00,,0831.7,5.01,0.00,27.3,26.5,00.0,36.3,29.1,07.7,0000.0,0004.41,0002.55,0002.18
2021-10-15 20:20:00,,0831.7,5.00,0.00,27.3,26.5,00.0,36.3,29.2,07.7,0000.0,0004.49,0002.58,0002.19
2021-10-15 20:21:00,,0831.7,4.99,0.00,27.3,26.6,00.0,36.3,29.2,07.8,0000.0,0005.56,0002.60,0002.21
2021-10-15 20:22:00,,0831.7,5.01,0.00,27.3,26.6,00.0,36.3,29.2,07.8,0000.0,0005.56,0002.61,0002.21
2021-10-15 20:23:00,,0831.6,5.00,0.00,27.4,26.6,00.0,36.3,29.2,07.7,0000.0,0005.84,0002.61,0002.22
2021-10-15 20:24:00,,0831.7,4.99,0.00,27.4,26.7,00.0,36.3,29.2,07.7,0000.0,0005.93,0002.65,0002.24
2021-10-15 20:25:00,,0831.7,5.01,0.00,27.4,26.6,00.0,36.3,29.3,07.7,0000.0,0006.07,0002.68,0002.26
2021-10-15 20:26:00,,0831.7,4.99,0.00,27.4,26.6,00.0,36.3,29.3,07.7,0000.0,0005.97,0002.65,0002.27
2021-10-15 20:27:00,,0831.7,5.01,0.00,27.4,26.6,00.0,36.4,29.3,07.8,0000.0,0005.81,0002.65,0002.28
2021-10-15 20:28:00,,0831.7,5.00,0.00,27.4,26.6,00.0,36.4,29.2,07.7,0000.0,0005.54,0002.68,0002.28
2021-10-15 20:29:00,,0831.8,4.99,0.00,27.4,26.6,00.0,36.4,29.3,07.9,0000.0,0005.53,0002.66,0002.26
2021-10-15 20:30:00,,0831.8,5.01,0.00,27.4,26.6,00.0,36.4,29.3,07.6,0000.0,0005.46,0002.62,0002.24
2021-10-15 20:31:00,,0831.8,5.00,0.00,27.4,26.6,00.0,36.4,29.3,07.7,0000.0,0005.40,0002.60,0002.21
2021-10-15 20:32:00,,0831.7,4.99,0.00,27.4,26.6,00.0,36.4,29.2,07.7,0000.0,0004.53,0002.60,0002.20
2021-10-15 20:33:00,,0831.7,5.01,0.00,27.4,26.6,00.0,36.4,29.3,07.7,0000.0,0004.17,0002.60,0002.19
2021-10-15 20:34:00,,0831.7,5.01,0.00,27.4,26.6,00.0,36.4,29.3,07.8,0000.0,0003.72,0002.61,0002.18
2021-10-15 20:35:00,,0831.7,4.99,0.00,27.4,26.6,00.0,36.4,29.2,07.7,0000.0,0003.73,0002.63,0002.17
2021-10-15 20:36:00,,0831.7,5.00,0.00,27.4,26.6,00.0,36.4,29.2,07.7,0000.0,0004.02,0002.63,0002.17
2021-10-15 20:37:00,,0831.7,5.00,0.00,27.4,26.6,00.0,36.4,29.2,07.8,0000.0,0004.30,0002.67,0002.17
2021-10-15 20:38:00,,0831.7,5.01,0.00,27.4,26.6,00.0,36.4,29.3,07.7,0000.0,0004.11,0002.63,0002.16
2021-10-15 20:39:00,,0831.7,5.00,0.00,27.4,26.6,00.0,36.4,29.3,07.8,0000.0,0004.37,0002.57,0002.14
2021-10-15 20:40:00,,0831.7,5.01,0.00,27.4,26.6,00.0,36.4,29.2,07.8,0000.0,0004.63,0002.55,0002.14
2021-10-15 20:41:00,,0831.7,5.00,0.00,27.4,26.6,00.0,36.4,29.2,07.7,0000.0,0004.75,0002.60,0002.16
2021-10-15 20:42:00,,0831.7,4.99,0.00,27.4,26.6,00.0,36.4,29.2,07.7,0000.0,0004.91,0002.64,0002.19
2021-10-15 20:43:00,,0831.8,5.00,0.00,27.3,26.5,00.0,36.4,29.2,07.7,0000.0,0004.85,0002.61,0002.19
2021-10-15 20:44:00,,0831.7,5.01,0.00,27.3,26.5,00.0,36.4,29.2,07.7,0000.0,0004.81,0002.60,0002.20
2021-10-15 20:45:00,,0831.7,5.00,0.00,27.3,26.5,00.0,36.4,29.2,07.7,0000.0,0004.78,0002.58,0002.21
2021-10-15 20:46:00,,0831.7,5.00,0.00,27.3,26.5,00.0,36.4,29.2,07.7,0000.0,0004.74,0002.56,0002.22
2021-10-15 20:47:00,,0831.7,4.99,0.00,27.3,26.6,00.0,36.4,29.2,07.7,0000.0,0004.33,0002.57,0002.25
2021-10-15 20:48:00,,0831.7,4.99,0.00,27.3,26.6,00.0,36.4,29.2,07.8,0000.0,0004.18,0002.57,0002.27
2021-10-15 20:49:00,,0831.7,5.00,0.00,27.3,26.5,00.0,36.4,29.2,07.7,0000.0,0004.38,0002.63,0002.29
2021-10-15 20:50:00,,0831.7,5.01,0.00,27.3,26.6,00.0,36.4,29.2,07.7,0000.0,0004.06,0002.67,0002.31
2021-10-15 20:51:00,,0831.8,5.01,0.00,27.3,26.6,00.0,36.4,29.2,07.7,0000.0,0003.78,0002.68,0002.32
2021-10-15 20:52:00,,0831.8,4.98,0.00,27.4,26.6,00.0,36.4,29.2,07.6,0000.0,0003.80,0002.69,0002.32
2021-10-15 20:53:00,,0831.7,5.00,0.00,27.4,26.6,00.0,36.4,29.2,07.6,0000.0,0003.63,0002.66,0002.33
2021-10-15 20:54:00,,0831.7,5.01,0.00,27.3,26.6,00.0,36.4,29.2,07.6,0000.0,0003.69,0002.68,0002.35
2021-10-15 20:55:00,,0831.7,5.01,0.00,27.4,26.6,00.0,36.4,29.2,07.6,0000.0,0003.81,0002.72,0002.37
2021-10-15 20:56:00,,0831.7,5.01,0.00,27.4,26.6,00.0,36.4,29.2,07.6,0000.0,0003.95,0002.77,0002.37
2021-10-15 20:57:00,,0831.7,4.98,0.00,27.4,26.6,00.0,36.4,29.2,07.7,0000.0,0004.06,0002.78,0002.38
2021-10-15 20:58:00,,0831.8,5.01,0.00,27.4,26.6,00.0,36.4,29.2,07.6,0000.0,0004.29,0002.79,0002.35
2021-10-15 20:59:00,,0831.7,4.98,0.00,27.4,26.6,00.0,36.4,29.2,07.7,0000.0,0004.22,0002.75,0002.32
